Burlington, WA

5:16 PM PDT on October 19, 2017 (GMT -0700)
Skagit Regional

Weather History for KBVS - January, 2013

Change the Weather History Date:

Saturday, January 12, 2013

  Actual Average Record
Temperature  
Mean Temperature 32 °F -  
Max Temperature 35 °F 45 °F 56 °F (1959)
Min Temperature 28 °F 33 °F 11 °F (1963)
Degree Days  
Heating Degree Days 34    
Moisture  
Dew Point 27 °F    
Average Humidity 88    
Maximum Humidity 100    
Minimum Humidity 70    
Precipitation  
Precipitation 0.00 in - - ()
Sea Level Pressure  
Sea Level Pressure 30.39 in    
Wind  
Wind Speed 6 mph (NNE)    
Max Wind Speed 9 mph    
Max Gust Speed -    
Visibility 9 miles    
Events      
Averages and records for this station are not official NWS values.
T = Trace of Precipitation, MM = Missing Value Source: NWS Daily Summary

Daily Weather History Graph

Daily Weather History Graph

Search for Another Location

Airport or City:

Trip Planner

Search our weather history database for the weather conditions in past years. The results will help you decide how hot, cold, wet, or windy it might be!

Date:

Astronomy

Jan. 12, 2013 Rise Set
Actual Time 7:57 AM PST 4:38 PM PST
Civil Twilight 7:22 AM PST 5:14 PM PST
Nautical Twilight 6:43 AM PST 5:53 PM PST
Astronomical Twilight 6:05 AM PST 6:31 PM PST
Moon 8:11 AM PST (1/12) 6:24 PM PST (1/12)
Length of Visible Light 9h 52m
Length of Day
8h 40m
New Moon, 2% of the Moon is Illuminated
Jan 12
New Moon
Jan 18
First Quarter
Jan 26
Full
Feb 3
Last Quarter
Feb 9
New

Hourly Weather History & Observations

Time (PST) Temp. Windchill Dew Point Humidity Pressure Visibility Wind Dir Wind Speed Gust Speed Precip Events Conditions
12:15 AM 30.2 °F 26.7 °F 28.4 °F 93% 30.34 in 10.0 mi ENE 3.5 mph - 0.00 in   Clear
12:35 AM 30.2 °F 25.4 °F 28.4 °F 93% 30.35 in 10.0 mi ENE 4.6 mph - 0.00 in   Clear
12:55 AM 30.2 °F 23.4 °F 28.4 °F 93% 30.35 in 10.0 mi ENE 6.9 mph - 0.00 in   Clear
1:15 AM 30.2 °F 21.9 °F 28.4 °F 93% 30.35 in 10.0 mi ENE 9.2 mph - 0.00 in   Clear
1:35 AM 30.2 °F 24.3 °F 26.6 °F 86% 30.35 in 10.0 mi NE 5.8 mph - 0.00 in   Clear
1:55 AM 30.2 °F 23.4 °F 28.4 °F 93% 30.35 in 10.0 mi NE 6.9 mph - 0.00 in   Clear
2:15 AM 30.2 °F 24.3 °F 26.6 °F 86% 30.35 in 10.0 mi NE 5.8 mph - 0.00 in   Clear
2:35 AM 28.4 °F 20.4 °F 28.4 °F 100% 30.36 in 10.0 mi NE 8.1 mph - 0.00 in   Clear
2:55 AM 28.4 °F 20.4 °F 28.4 °F 100% 30.36 in 10.0 mi NE 8.1 mph - 0.00 in   Clear
3:15 AM 28.4 °F 21.2 °F 28.4 °F 100% 30.36 in 10.0 mi NE 6.9 mph - 0.00 in   Clear
3:35 AM 28.4 °F 21.2 °F 26.6 °F 93% 30.36 in 10.0 mi NE 6.9 mph - 0.00 in   Clear
3:55 AM 28.4 °F 21.2 °F 26.6 °F 93% 30.36 in 10.0 mi NE 6.9 mph - 0.00 in   Clear
4:15 AM 28.4 °F 21.2 °F 26.6 °F 93% 30.36 in 10.0 mi NE 6.9 mph - 0.00 in   Clear
4:35 AM 28.4 °F 21.2 °F 26.6 °F 93% 30.36 in 10.0 mi NE 6.9 mph - 0.00 in   Clear
4:55 AM 28.4 °F 19.7 °F 26.6 °F 93% 30.36 in 10.0 mi NE 9.2 mph - 0.00 in   Clear
5:15 AM 28.4 °F 19.7 °F 26.6 °F 93% 30.36 in 10.0 mi NE 9.2 mph - 0.00 in   Clear
5:35 AM 28.4 °F 22.2 °F 26.6 °F 93% 30.36 in 10.0 mi NE 5.8 mph - 0.00 in   Clear
5:55 AM 28.4 °F 20.4 °F 26.6 °F 93% 30.36 in 10.0 mi NE 8.1 mph - 0.00 in   Clear
6:15 AM 28.4 °F 20.4 °F 26.6 °F 93% 30.36 in 10.0 mi NE 8.1 mph - 0.00 in   Clear
6:35 AM 28.4 °F 21.2 °F 26.6 °F 93% 30.37 in 10.0 mi NNE 6.9 mph - 0.00 in   Clear
6:55 AM 28.4 °F 21.2 °F 26.6 °F 93% 30.37 in 10.0 mi NNE 6.9 mph - 0.00 in   Clear
7:35 AM 28.4 °F 20.4 °F 24.8 °F 86% 30.38 in 10.0 mi NE 8.1 mph - 0.00 in   Clear
7:55 AM 28.4 °F 21.2 °F 24.8 °F 86% 30.39 in 10.0 mi NE 6.9 mph - 0.00 in   Clear
8:15 AM 28.4 °F 21.2 °F 24.8 °F 86% 30.39 in 10.0 mi NE 6.9 mph - 0.00 in   Clear
8:35 AM 28.4 °F 21.2 °F 24.8 °F 86% 30.40 in 10.0 mi NE 6.9 mph - 0.00 in   Clear
8:55 AM 28.4 °F 21.2 °F 24.8 °F 86% 30.40 in 9.0 mi NE 6.9 mph - 0.00 in   Clear
9:15 AM 28.4 °F 21.2 °F 26.6 °F 93% 30.40 in 9.0 mi NE 6.9 mph - 0.00 in   Clear
9:35 AM 30.2 °F 21.9 °F 26.6 °F 86% 30.41 in 9.0 mi ENE 9.2 mph - 0.00 in   Clear
9:55 AM 30.2 °F 22.6 °F 26.6 °F 86% 30.41 in 8.0 mi NE 8.1 mph - 0.00 in   Clear
10:15 AM 30.2 °F 24.3 °F 26.6 °F 86% 30.41 in 8.0 mi NE 5.8 mph - 0.00 in   Clear
10:35 AM 30.2 °F 23.4 °F 26.6 °F 86% 30.41 in 9.0 mi NE 6.9 mph - 0.00 in   Clear
10:55 AM 32.0 °F 25.6 °F 26.6 °F 80% 30.42 in 8.0 mi NE 6.9 mph - 0.00 in   Clear
11:15 AM 32.0 °F 26.4 °F 26.6 °F 80% 30.41 in 8.0 mi ENE 5.8 mph - 0.00 in   Clear
11:35 AM 32.0 °F 27.5 °F 28.4 °F 87% 30.41 in 8.0 mi NE 4.6 mph - 0.00 in   Clear
11:55 AM 32.0 °F - 28.4 °F 87% 30.41 in 9.0 mi Calm Calm - 0.00 in   Clear
12:15 PM 33.8 °F 30.8 °F 28.4 °F 81% 30.40 in 8.0 mi NE 3.5 mph - 0.00 in   Clear
12:35 PM 33.8 °F 28.6 °F 30.2 °F 87% 30.40 in 7.0 mi NW 5.8 mph - 0.00 in   Clear
12:55 PM 33.8 °F 29.6 °F 30.2 °F 87% 30.40 in 7.0 mi NW 4.6 mph - 0.00 in   Clear
1:15 PM 33.8 °F 27.7 °F 30.2 °F 87% 30.41 in 8.0 mi WNW 6.9 mph - 0.00 in   Clear
1:35 PM 33.8 °F 28.6 °F 28.4 °F 81% 30.41 in 8.0 mi NW 5.8 mph - 0.00 in   Clear
1:55 PM 33.8 °F 28.6 °F 28.4 °F 81% 30.40 in 8.0 mi WNW 5.8 mph - 0.00 in   Clear
2:15 PM 33.8 °F 27.7 °F 26.6 °F 75% 30.40 in 8.0 mi NW 6.9 mph - 0.00 in   Clear
2:35 PM 35.6 °F 31.7 °F 28.4 °F 75% 30.41 in 8.0 mi North 4.6 mph - 0.00 in   Clear
2:55 PM 35.6 °F 31.7 °F 26.6 °F 70% 30.40 in 7.0 mi NNW 4.6 mph - 0.00 in   Clear
3:15 PM 35.6 °F 29.9 °F 26.6 °F 70% 30.40 in 8.0 mi NNW 6.9 mph - 0.00 in   Clear
3:35 PM 35.6 °F 29.9 °F 26.6 °F 70% 30.40 in 5.0 mi NW 6.9 mph - 0.00 in   Clear
3:55 PM 33.8 °F 27.7 °F 26.6 °F 75% 30.40 in 8.0 mi WNW 6.9 mph - 0.00 in   Clear
4:15 PM 32.0 °F 27.5 °F 24.8 °F 75% 30.41 in 9.0 mi WNW 4.6 mph - 0.00 in   Clear
4:35 PM 32.0 °F 26.4 °F 26.6 °F 80% 30.41 in 9.0 mi WNW 5.8 mph - 0.00 in   Clear
4:55 PM 30.2 °F 24.3 °F 26.6 °F 86% 30.41 in 9.0 mi WNW 5.8 mph - 0.00 in   Clear
5:15 PM 30.2 °F 26.7 °F 26.6 °F 86% 30.40 in 10.0 mi NW 3.5 mph - 0.00 in   Clear
5:35 PM 30.2 °F 25.4 °F 26.6 °F 86% 30.40 in 10.0 mi NW 4.6 mph - 0.00 in   Clear
5:55 PM 28.4 °F 23.3 °F 26.6 °F 93% 30.42 in 10.0 mi North 4.6 mph - 0.00 in   Clear
6:15 PM 30.2 °F - 26.6 °F 86% 30.42 in 10.0 mi Calm Calm - 0.00 in   Clear
6:35 PM 30.2 °F - 26.6 °F 86% 30.42 in 10.0 mi Calm Calm - 0.00 in   Clear
6:55 PM 28.4 °F 23.3 °F 26.6 °F 93% 30.42 in 10.0 mi North 4.6 mph - 0.00 in   Clear
7:15 PM 30.2 °F 26.7 °F 26.6 °F 86% 30.42 in 10.0 mi North 3.5 mph - 0.00 in   Clear
7:55 PM 30.2 °F 26.7 °F 26.6 °F 86% 30.42 in 10.0 mi NE 3.5 mph - 0.00 in   Clear
8:15 PM 30.2 °F 26.7 °F 26.6 °F 86% 30.42 in 10.0 mi NE 3.5 mph - 0.00 in   Clear
8:35 PM 28.4 °F - 28.4 °F 100% 30.42 in 9.0 mi Calm Calm - 0.00 in   Clear
9:15 PM 28.4 °F 22.2 °F 28.4 °F 100% 30.43 in 10.0 mi NNE 5.8 mph - 0.00 in   Clear
9:35 PM 28.4 °F 22.2 °F 28.4 °F 100% 30.42 in 10.0 mi NE 5.8 mph - 0.00 in   Clear
9:55 PM 28.4 °F 21.2 °F 28.4 °F 100% 30.44 in 10.0 mi NE 6.9 mph - 0.00 in   Clear
10:35 PM 28.4 °F 20.4 °F 28.4 °F 100% 30.44 in 10.0 mi NE 8.1 mph - 0.00 in   Clear
11:15 PM 28.4 °F 23.3 °F 28.4 °F 100% 30.46 in 10.0 mi NE 4.6 mph - 0.00 in   Clear
11:35 PM 28.4 °F 22.2 °F 28.4 °F 100% 30.46 in 10.0 mi NE 5.8 mph - 0.00 in   Clear